Skip Page Navigation
NASA JPL Caltech
NASA Logo - Jet Propulsion Laboratory + View the NASA Portal
+ Near-Earth Object (NEO) Program
Search JPL
JPL Home Earth Solar System Stars & Galaxies Technology
JPL Solar System Dynamics
BODIES ORBITS EPHEMERIDES TOOLS PHYSICAL DATA DISCOVERY FAQ SITE MAP
JPL Small-Body Database Browser
Search: [ help ]  
C/2012 F6 (Lemmon)
Classification: Comet          SPK-ID: 1003183
Ephemeris | Orbit Diagram | Orbital Elements | Physical Parameters ]

[ hide orbit diagram ]
Orbit Diagram
Note: Make sure you have Java enabled on your browser to see the applet. This applet is provided as a 3D orbit visualization tool. The applet was implemented using 2-body methods, and hence should not be used for determining accurate long-term trajectories (over several years or decades) or planetary encounter circumstances. For accurate long-term ephemerides, please instead use our Horizons system.
Orbit Viewer

Additional Notes: the orbits shown in the applet are color coded. The planets are white lines, and the asteroid/comet is a blue line. The bright white line indicates the portion of the orbit that is above the ecliptic plane, and the darker portion is below the ecliptic plane. Likewise for the asteroid/comet orbit, the light blue indicates the portion above the ecliptic plane, and the dark blue the portion below the ecliptic plane.

Orbit Viewer applet originally written and kindly provided by Osamu Ajiki (AstroArts), and further modified by Ron Baalke (JPL).


Orbital Elements at Epoch 2456302.5 (2013-Jan-10.0) TDB
Reference: JPL 23 (heliocentric ecliptic J2000)
 Element Value Uncertainty (1-sigma)   Units 
e .9985157803916354 8.1626e-07  
a 492.6855012816019 0.27092 AU
q .7312534817591182 2.1852e-07 AU
i 82.60766857179252 3.9614e-05 deg
node 332.71468678 2.1913e-05 deg
peri 304.9872882566191 2.8088e-05 deg
M 359.9933744400055 5.4673e-06 deg
tp 2456376.014530859059
(2013-Mar-24.51453086)
3.7936e-05 JED
period 3994414.227836147
10936.11
3294.7
9.02
d
yr
n 9.012585562389684E-5 7.4339e-08 deg/d
Q 984.6397490814447 0.54144 AU
  Orbit Determination Parameters
   # obs. used (total)      540  
   data-arc span      503 days (1.38 yr)  
   first obs. used      2012-01-22  
   last obs. used      2013-06-08  
   planetary ephem.      DE405  
   SB-pert. ephem.      SB405-CPV-2  
   fit RMS      .65734  
   data source      ORB  
   producer      Otto Matic  
   solution date      2013-Jun-08 20:42:59  

Additional Information
 Earth MOID = .0734177 AU 
 T_jup = 0.147 
[ show covariance matrix ]

Ephemeris | Orbit Diagram | Orbital Elements | Physical Parameters ]

Physical Parameter Table
Parameter Symbol Value Units Sigma Reference Notes
comet total magnitude M1 4.6 mag 0.7 23 2 parameter fit from 71 observations, autocmod 2.5c
comet total magnitude slope K1 18.   n/a 23 autocmod 2.5c
comet nuclear magnitude M2 11.9 mag 1. 23 from 408 observations, autocmod 2.5c
comet nuclear magnitude slope K2 5.   n/a 23 autocmod 2.5c
comet nuclear phase coefficient PC 0.03   n/a 23 autocmod 2.5c

Alternate Designations
 Perihelion 
Year
(est.)
 New-Style 
Desig
Roman
 Numeral 
Year/
 Letter 
 2013.2   C/2012 F6       
Ephemeris | Orbit Diagram | Orbital Elements | Physical Parameters ]
ABOUT SSD CREDITS/AWARDS PRIVACY/COPYRIGHT GLOSSARY LINKS
FirstGov 2013-Jun-20 03:59 UT
(server date/time)  
NASA Home Page
Site Manager:   Donald K. Yeomans
Webmaster  Alan B. Chamberlin